Miscellaneous Local Product
Issued by NWS North Platte, NE

Home | Current Version | Previous Version | Text Only | Print | Product List | Glossary On
Versions: 1 2 3 4 5 6 7 8 9 10 11 12 13 14 15 16 17 18 19 20 21 22 23 24 25 26 27 28 29 30 31 32 33 34 35 36 37 38 39 40 41 42 43 44 45 46 47 48 49 50
424
AXUS43 KLBF 290710
MISLBF


WESTERN AND NORTH CENTRAL NEBRASKA HOURLY WEATHER ROUNDUP
NATIONAL WEATHER SERVICE NORTH PLATTE NE
200 AM CDT FRI JUL 29 2016

NOTE: "FAIR" INDICATES FEW OR NO CLOUDS BELOW 12,000 FEET WITH NO
SIGNIFICANT WEATHER AND/OR OBSTRUCTIONS TO VISIBILITY.

NOTE: STATIONS NOT REPORTING VARIABLES SUCH AS SKY/WEATHER OR
PRESSURE ARE PROVIDED BY RAWS AND APRS NETWORKS AND ARE NOT UNDER
NATIONAL WEATHER SERVICE QUALITY CONTROL.

...OBSERVATIONS IN AND NEAR THE EASTERN PANHANDLE OF NEBRASKA...

CITY           SKY/WX    TMP DP  RH WIND       PRES   REMARKS
PINE RIDGE     CLOUDY    59  59 100 E5        30.16F
CHADRON        CLEAR     60  57  89 CALM      30.16F
ALLIANCE       CLEAR     58  56  93 N3        30.18S
SIDNEY         MOCLDY    63  59  87 SW7       30.22F
CRESCENT LAKE    N/A     60  58  93 E3          N/A
$$

...OBSERVATIONS IN NORTHERN NEBRASKA AND FAR SOUTHERN SOUTH DAKOTA...

CITY           SKY/WX    TMP DP  RH WIND       PRES   REMARKS
WINNER         LGT RAIN  63  61  93 NW5       30.12R
VALENTINE      CLOUDY    59  58  96 W6        30.14R
THEDFORD       CLEAR     59  58  97 CALM      30.15R
AINSWORTH      MOCLDY    60  60 100 W3        30.12S FOG
O`NEILL        LGT RAIN  66  65  94 N5        30.10S
ORD            CLOUDY    67  65  93 CALM      30.09R
BROKEN BOW     PTCLDY    60  60 100 N5        30.11F
VALENTINE NWR    N/A     59  59  99 CALM        N/A
BUTTE            N/A     64  63  96 N3          N/A
HALSEY           N/A     61  60  96 CALM        N/A
EWING            N/A     67  65  94 CALM        N/A
$$

...OBSERVATIONS IN SOUTHWEST NEBRASKA AND FAR NORTHEAST COLORADO...

CITY           SKY/WX    TMP DP  RH WIND       PRES   REMARKS
WRAY           PTSUNNY   63  63 100 CALM      30.19R
HOLYOKE        FAIR      63  61  94 CALM      30.18F
IMPERIAL       PTCLDY    65  62  90 CALM      30.16F
OGALLALA       CLEAR     61  59  92 W5        30.16S
NORTH PLATTE   CLEAR     59  57  93 CALM      30.14R
MCCOOK         CLEAR     61  58  90 N3        30.12R
LEXINGTON      PTCLDY    64  61  91 NE5       30.12R
STAPLETON        N/A     59  58  96 CALM        N/A
GOTHENBURG       N/A     64  59  83 NE3         N/A
CALLAWAY         N/A     62  61  96 E7          N/A
$$

...OBSERVATIONS IN CENTRAL LINCOLN COUNTY AREA...

CITY           SKY/WX    TMP DP  RH WIND       PRES   REMARKS
N.P. AIRPORT   CLEAR     59  57  93 CALM      30.14R
N.P. DOWNTOWN    N/A     62  60  94 CALM        N/A
N.P. SOUTHEAST   N/A     61  59  94 CALM        N/A
N.P. HILLCREST   N/A     62  60  92 CALM        N/A
$$

...SOME OBSERVATIONS FROM AROUND THE REGION...

CITY           SKY/WX    TMP DP  RH WIND       PRES   REMARKS
DENVER         CLOUDY    67  58  72 E9        30.26S
LARAMIE        CLOUDY    57  52  83 SE12      30.33S
CHEYENNE       CLOUDY    60  54  80 S6        30.30R
SCOTTSBLUFF    CLEAR     62  59  90 NE5       30.18R
RAPID CITY     FOG       55  55 100 CALM      30.17S VSB 1/4
BISMARCK       MOCLDY    64  57  78 NE5       30.12S
PIERRE         CLOUDY    64  63  96 SW6       30.09S
SIOUX FALLS    PTCLDY    59  55  87 NE3       30.08F
OMAHA          CLOUDY    70  65  84 N6        30.02S
GRAND ISLAND   CLOUDY    69  65  86 N3        30.08F
KANSAS CITY    CLOUDY    74  65  73 NE7       29.99S
WICHITA        CLOUDY    73  69  87 N6        29.99F
OKLAHOMA CITY  PTCLDY    79  71  76 NE12      29.97S
DALLAS         PTCLDY    80  71  74 S8        29.95S
AMARILLO       CLEAR     74  61  63 SE12      30.08R
DODGE CITY     LGT RAIN  67  66  97 N8        30.08R
HAYS           CLOUDY    66  57  72 W5        30.07S
GOODLAND       CLOUDY    64  61  90 CALM      30.17S
$$




USA.gov is the U.S. government's official web portal to all federal, state and local government web resources and services.